Weather History for Goldsboro, NC

Change the Weather History Date:

Saturday, October 12, 2013

  Actual Average (KGSB) Record (KGSB)
Temperature  
Mean Temperature 66 °F -  
Max Temperature 70 °F 73 °F 86 °F (2010)
Min Temperature 61 °F 52 °F 37 °F (2004)
Growing Degree Days 16 (Base 50)    
Moisture  
Dew Point 64 °F    
Average Humidity 96    
Maximum Humidity 100    
Minimum Humidity 84    
Precipitation  
Precipitation 0.06 in - - ()
Sea Level Pressure  
Sea Level Pressure 30.00 in    
Wind  
Wind Speed 3 mph (NNW)    
Max Wind Speed 8 mph    
Max Gust Speed -    
Visibility 8 miles    
Events Rain    
Averages and records for this station are not official NWS values.
T = Trace of Precipitation, MM = Missing Value Source: NWS Daily Summary

Daily Weather History Graph

Daily Weather History Graph

Search for Another Location

Airport:

Trip Planner

Search our weather history database for the weather conditions in past years. The results will help you decide how hot, cold, wet, or windy it might be!

Date:

Astronomy

Oct. 12, 2013 Rise Set
Actual Time 7:15 AM EDT 6:40 PM EDT
Civil Twilight 6:50 AM EDT 7:05 PM EDT
Nautical Twilight 6:20 AM EDT 7:35 PM EDT
Astronomical Twilight 5:51 AM EDT 8:04 PM EDT
Moon 2:36 PM EDT (10/12) 12:30 AM EDT (10/12)
Length of Visible Light 12h 15m
Length of Day
11h 24m
First Quarter, 58% of the Moon is Illuminated
Oct 12
First Quarter
Oct 18
Full
Oct 26
Last Quarter
Nov 3
New
Nov 10
First Quarter

Hourly Weather History & Observations

Time (EDT) Temp. Dew Point Humidity Pressure Visibility Wind Dir Wind Speed Gust Speed Precip Events Conditions
12:15 AM 63.0 °F 61.7 °F 96% 29.95 in 10.0 mi North 4.6 mph - N/A   Overcast
12:35 AM 62.8 °F 61.3 °F 95% 29.95 in 10.0 mi NNW 3.5 mph - N/A   Overcast
12:55 AM 62.8 °F 61.7 °F 96% 29.95 in 10.0 mi Calm Calm - N/A   Overcast
1:15 AM 62.6 °F 61.7 °F 97% 29.95 in 10.0 mi Calm Calm - N/A   Overcast
1:35 AM 62.6 °F 61.7 °F 97% 29.95 in 10.0 mi Calm Calm - N/A   Overcast
1:55 AM 62.6 °F 61.9 °F 97% 29.95 in 10.0 mi Calm Calm - N/A   Overcast
2:15 AM 62.6 °F 61.7 °F 97% 29.95 in 10.0 mi Calm Calm - N/A   Overcast
2:35 AM 62.4 °F 61.7 °F 97% 29.95 in 10.0 mi Calm Calm - N/A   Overcast
2:55 AM 62.2 °F 61.9 °F 99% 29.95 in 10.0 mi Calm Calm - N/A   Overcast
3:15 AM 61.9 °F 61.5 °F 99% 29.95 in 10.0 mi NW 3.5 mph - N/A   Overcast
3:35 AM 61.9 °F 61.2 °F 97% 29.95 in 10.0 mi NNW 3.5 mph - N/A   Overcast
3:55 AM 61.7 °F 61.2 °F 98% 29.95 in 10.0 mi NW 3.5 mph - N/A   Overcast
4:15 AM 61.5 °F 61.3 °F 99% 29.95 in 4.0 mi NNW 3.5 mph - N/A   Overcast
4:35 AM 61.2 °F 61.2 °F 100% 29.95 in 3.0 mi Calm Calm - N/A   Overcast
4:55 AM 61.2 °F 61.2 °F 100% 29.96 in 4.0 mi Calm Calm - N/A   Overcast
5:15 AM 61.2 °F 61.2 °F 100% 29.96 in 7.0 mi NW 3.5 mph - N/A   Overcast
5:35 AM 61.3 °F 61.3 °F 100% 29.96 in 5.0 mi Calm Calm - N/A   Overcast
5:55 AM 61.3 °F 61.3 °F 100% 29.97 in 10.0 mi Calm Calm - N/A   Overcast
6:15 AM 61.2 °F 61.2 °F 100% 29.98 in 2.0 mi NW 3.5 mph - N/A   Overcast
6:35 AM 61.3 °F 61.3 °F 100% 29.98 in 4.0 mi Calm Calm - N/A   Overcast
6:55 AM 61.3 °F 61.3 °F 100% 29.98 in 7.0 mi NNW 3.5 mph - N/A   Overcast
7:35 AM 61.3 °F 61.3 °F 100% 29.99 in 10.0 mi Calm Calm - N/A   Overcast
7:55 AM 61.7 °F 61.7 °F 100% 29.99 in 10.0 mi Calm Calm - N/A   Overcast
8:15 AM 61.9 °F 61.9 °F 100% 29.99 in 10.0 mi NNW 3.5 mph - N/A   Overcast
8:35 AM 62.4 °F 62.4 °F 100% 30.00 in 10.0 mi NW 4.6 mph - N/A   Overcast
8:55 AM 62.8 °F 62.8 °F 100% 30.01 in 10.0 mi WNW 3.5 mph - N/A   Overcast
9:15 AM 63.3 °F 63.1 °F 99% 30.01 in 10.0 mi Calm Calm - N/A   Overcast
9:35 AM 63.9 °F 63.0 °F 97% 30.01 in 10.0 mi NW 5.8 mph - N/A   Overcast
9:55 AM 64.4 °F 63.0 °F 95% 30.01 in 10.0 mi NW 3.5 mph - N/A   Overcast
10:15 AM 64.4 °F 63.0 °F 95% 30.01 in 10.0 mi NW 4.6 mph - N/A   Overcast
10:35 AM 64.0 °F 63.1 °F 97% 30.01 in 5.0 mi NNW 5.8 mph - N/A   Overcast
10:55 AM 64.4 °F 63.1 °F 96% 30.02 in 10.0 mi NNW 5.8 mph - N/A   Overcast
11:15 AM 64.8 °F 63.1 °F 94% 30.02 in 10.0 mi NW 5.8 mph - N/A   Overcast
11:35 AM 65.5 °F 63.1 °F 92% 30.02 in 10.0 mi NW 4.6 mph - N/A   Overcast
11:55 AM 67.1 °F 63.5 °F 88% 30.02 in 10.0 mi NW 3.5 mph - N/A   Overcast
12:15 PM 67.3 °F 63.5 °F 88% 30.02 in 10.0 mi NW 5.8 mph - N/A   Overcast
12:35 PM 67.3 °F 63.5 °F 88% 30.02 in 10.0 mi NW 4.6 mph - N/A   Overcast
12:55 PM 67.5 °F 63.9 °F 88% 30.02 in 10.0 mi NW 5.8 mph - N/A   Overcast
1:15 PM 67.6 °F 64.2 °F 89% 30.01 in 10.0 mi NNW 3.5 mph - N/A   Overcast
1:35 PM 68.4 °F 64.0 °F 86% 30.00 in 10.0 mi NW 5.8 mph - N/A   Overcast
1:55 PM 69.3 °F 64.2 °F 84% 30.00 in 10.0 mi North 5.8 mph - N/A   Overcast
2:15 PM 69.1 °F 64.2 °F 84% 29.99 in 10.0 mi NNW 4.6 mph - N/A   Overcast
2:35 PM 69.8 °F 64.8 °F 84% 29.99 in 10.0 mi NNW 4.6 mph - N/A   Overcast
2:55 PM 69.4 °F 64.4 °F 84% 29.99 in 10.0 mi NNW 5.8 mph - N/A   Overcast
3:15 PM 70.2 °F 65.1 °F 84% 29.99 in 10.0 mi NW 3.5 mph - N/A   Overcast
3:35 PM 69.3 °F 64.9 °F 86% 30.00 in 10.0 mi NNW 4.6 mph - N/A   Overcast
3:55 PM 69.4 °F 65.3 °F 87% 30.00 in 10.0 mi Calm Calm - N/A   Overcast
4:15 PM 69.1 °F 65.5 °F 88% 30.00 in 10.0 mi Calm Calm - N/A   Overcast
4:35 PM 68.9 °F 66.0 °F 90% 30.00 in 10.0 mi Calm Calm - N/A   Overcast
4:55 PM 69.1 °F 66.4 °F 91% 30.00 in 10.0 mi NW 3.5 mph - N/A   Overcast
5:15 PM 68.9 °F 66.2 °F 91% 30.01 in 10.0 mi NW 4.6 mph - N/A   Overcast
5:35 PM 67.3 °F 66.4 °F 97% 30.01 in 2.5 mi NW 3.5 mph - N/A Rain Rain
5:55 PM 67.1 °F 67.1 °F 100% 30.02 in 2.0 mi Calm Calm - N/A Rain Rain
6:15 PM 66.7 °F 66.7 °F 100% 30.03 in 2.0 mi NW 3.5 mph - 0.01 in   Heavy Drizzle
6:35 PM 66.6 °F 66.6 °F 100% 30.03 in 2.5 mi Calm Calm - 0.03 in   Drizzle
6:55 PM 66.4 °F 66.4 °F 100% 30.03 in 3.0 mi Calm Calm - 0.04 in   Heavy Drizzle
7:15 PM 66.4 °F 66.4 °F 100% 30.04 in 5.0 mi Calm Calm - 0.01 in   Drizzle
7:35 PM 66.4 °F 66.4 °F 100% 30.04 in 2.5 mi WNW 3.5 mph - 0.02 in   Heavy Drizzle
7:55 PM 66.2 °F 66.2 °F 100% 30.04 in 4.0 mi NNW 4.6 mph - 0.02 in Rain Light Rain
8:15 PM 66.2 °F 66.2 °F 100% 30.04 in 10.0 mi NNW 4.6 mph - N/A   Overcast
8:35 PM 66.2 °F 66.2 °F 100% 30.05 in 10.0 mi North 3.5 mph - N/A   Overcast
8:55 PM 66.2 °F 66.2 °F 100% 30.05 in 10.0 mi North 3.5 mph - N/A   Overcast
9:15 PM 66.2 °F 66.2 °F 100% 30.05 in 10.0 mi NNW 4.6 mph - N/A   Overcast
9:35 PM 66.2 °F 66.2 °F 100% 30.05 in 5.0 mi NNW 5.8 mph - N/A   Overcast
9:55 PM 65.8 °F 65.8 °F 100% 30.05 in 3.0 mi NNW 5.8 mph - N/A   Overcast
10:15 PM 65.8 °F 65.8 °F 100% 30.06 in 10.0 mi NNW 4.6 mph - N/A   Overcast
10:35 PM 65.8 °F 65.8 °F 100% 30.06 in 5.0 mi North 6.9 mph - N/A   Overcast
10:55 PM 65.7 °F 65.7 °F 100% 30.06 in 10.0 mi North 4.6 mph - N/A   Overcast
11:15 PM 65.7 °F 65.7 °F 100% 30.06 in 10.0 mi North 4.6 mph - N/A   Overcast
11:35 PM 65.5 °F 65.5 °F 100% 30.06 in 10.0 mi North 6.9 mph - N/A   Overcast
11:55 PM 65.3 °F 65.3 °F 100% 30.05 in 2.5 mi North 8.1 mph - N/A   Overcast